FW3585 Weather Reports


Display with metric or nautical units.
time (UTC)temp
F
wind
direction
speed
MPH
gust
MPH
rain 1hr
in
rain 24hr
in
rain mn
in
humidity
%
barometer
mb
20260504034517 51 148 3.0 5.0 0.00 0.00 0.00 50 1017.1
20260504033017 51 150 2.0 3.0 0.00 0.00 0.00 51 1017.2
20260504031519 51 150 2.0 5.0 0.00 0.00 0.00 51 1017.3
20260504030016 52 144 2.0 6.0 0.00 0.00 0.00 51 1017.3
20260504024516 52 157 2.0 5.0 0.00 0.00 0.00 51 1017.2
20260504023016 52 147 2.0 5.0 0.00 0.00 0.00 51 1017.3
20260504021515 52 149 1.0 5.0 0.00 0.00 0.00 52 1017.1
20260504020014 52 151 1.0 5.0 0.00 0.00 0.00 52 1016.9
20260504014514 52 173 2.0 3.0 0.00 0.00 0.00 52 1016.6
20260504013018 53 173 1.0 2.0 0.00 0.00 0.00 51 1016.5
20260504011514 54 173 0.0 1.0 0.00 0.00 0.00 49 1016.3
20260504010013 55 173 1.0 3.0 0.00 0.00 0.00 46 1016.2
20260504004517 57 235 0.0 0.0 0.00 0.00 0.00 44 1016.2
20260504003012 58 235 0.0 0.0 0.00 0.00 0.00 42 1016.3
20260504001512 59 235 0.0 0.0 0.00 0.00 0.00 39 1016.4
20260504000010 60 235 1.0 3.0 0.00 0.00 0.00 35 1016.3
20260503234516 61 234 0.0 2.0 0.00 0.00 0.00 34 1016.2
20260503233009 61 236 1.0 5.0 0.00 0.00 0.00 33 1016.1
20260503231508 62 262 0.0 7.0 0.00 0.00 0.00 33 1016.1
20260503230007 62 215 4.0 7.0 0.00 0.00 0.00 32 1015.8
20260503224506 63 223 0.0 7.0 0.00 0.00 0.00 32 1016.1
20260503223005 63 246 1.0 6.0 0.00 0.00 0.00 31 1016.2
20260503221505 63 306 0.0 8.0 0.00 0.00 0.00 35 1016.3
20260503220003 63 277 3.0 14.0 0.00 0.00 0.00 32 1016.4
20260503214510 64 216 4.0 9.0 0.00 0.00 0.00 31 1016.4
20260503213002 64 273 3.0 7.0 0.00 0.00 0.00 31 1016.5
20260503211614 63 288 0.0 11.0 0.00 0.00 0.00 32 1016.6
20260503210058 63 268 3.0 12.0 0.00 0.00 0.00 31 1016.6
20260503204558 63 323 4.0 10.0 0.00 0.00 0.00 31 1016.7
20260503203056 62 216 4.0 15.0 0.00 0.00 0.00 32 1016.7
20260503201554 62 333 4.0 14.0 0.00 0.00 0.00 31 1016.8
20260503200100 62 302 1.0 10.0 0.00 0.00 0.00 33 1017.1
20260503194556 61 302 4.0 13.0 0.00 0.00 0.00 32 1017.2
20260503193057 61 309 3.0 17.0 0.00 0.00 0.00 33 1017.4
20260503191549 60 309 5.0 12.0 0.00 0.00 0.00 34 1017.8
20260503190048 59 285 5.0 14.0 0.00 0.00 0.00 34 1017.8
20260503184557 60 292 5.0 12.0 0.00 0.00 0.00 35 1017.9
20260503183044 59 351 3.0 14.0 0.00 0.00 0.00 40 1018.3
20260503181555 59 267 5.0 10.0 0.00 0.00 0.00 37 1018.6
20260503180049 58 250 4.0 12.0 0.00 0.00 0.00 37 1018.7
20260503174544 57 332 2.0 10.0 0.00 0.00 0.00 41 1018.9
20260503173046 57 274 4.0 10.0 0.00 0.00 0.00 37 1019.0
20260503171534 57 345 5.0 10.0 0.00 0.00 0.00 42 1019.3
20260503081539 38 21 0.0 1.0 0.00 0.00 0.00 76 1016.5
20260503071524 38 351 1.0 4.0 0.00 0.00 0.00 75 1015.9
20260503054518 38 5 1.0 2.0 0.00 0.00 0.00 75 1015.5
20260503053018 39 5 0.0 1.0 0.00 0.00 0.00 76 1015.6
20260503051527 39 5 1.0 2.0 0.00 0.00 0.00 73 1015.4
20260503050009 39 5 0.0 2.0 0.00 0.00 0.00 72 1015.4
20260503044507 39 5 0.0 0.0 0.00 0.00 0.00 72 1015.4
20260503043005 40 5 0.0 1.0 0.00 0.00 0.00 72 1015.3
20260503041502 41 5 0.0 3.0 0.00 0.00 0.00 70 1015.2
20260503040104 42 10 0.0 2.0 0.00 0.00 0.00 68 1015.2